This is the latest recevied weather packets stored in our database for station/object XE2KK-10. If no packets are shown the sender has not sent any weather packets the latest 10 day(s).
| Time | Temp. | Humidity | Pressure | Rain* | Wind** | Luminosity | Snow |
|---|---|---|---|---|---|---|---|
| 1777330752 | 37.78° C | 28% | 1006.3 hPa | 0 mm | - | 304 W/m² | - |
| 1777330453 | 37.78° C | 29% | 1006.5 hPa | 0 mm | - | 335 W/m² | - |
| 1777330153 | 37.78° C | 29% | 1006.6 hPa | 0 mm | - | 345 W/m² | - |
| 1777329853 | 38.33° C | 28% | 1006.4 hPa | 0 mm | - | 373 W/m² | - |
| 1777329553 | 37.78° C | 29% | 1006.4 hPa | 0 mm | - | 389 W/m² | - |
| 1777329252 | 37.78° C | 30% | 1006.4 hPa | 0 mm | - | 422 W/m² | - |
| 1777328952 | 37.78° C | 31% | 1006.4 hPa | 0 mm | - | 400 W/m² | - |
| 1777328653 | 37.78° C | 31% | 1006.6 hPa | 0 mm | - | 375 W/m² | - |
| 1777328353 | 37.78° C | 27% | 1006.4 hPa | 0 mm | - | 363 W/m² | - |
| 1777328053 | 38.33° C | 28% | 1006.6 hPa | 0 mm | - | 377 W/m² | - |
| 1777327753 | 37.78° C | 26% | 1006.5 hPa | 0 mm | - | 406 W/m² | - |
| 1777327452 | 37.78° C | 27% | 1006.5 hPa | 0 mm | - | 422 W/m² | - |
| 1777327152 | 38.33° C | 25% | 1006.8 hPa | 0 mm | - | 419 W/m² | - |
| 1777326853 | 38.33° C | 25% | 1006.7 hPa | 0 mm | - | 453 W/m² | - |
| 1777326553 | 37.78° C | 26% | 1006.6 hPa | 0 mm | - | 521 W/m² | - |
| 1777326253 | 37.78° C | 27% | 1006.9 hPa | 0 mm | - | 540 W/m² | - |
| 1777325953 | 38.33° C | 27% | 1006.8 hPa | 0 mm | - | 524 W/m² | - |
| 1777325652 | 38.33° C | 25% | 1006.9 hPa | 0 mm | - | 563 W/m² | - |
| 1777325352 | 37.78° C | 26% | 1007.1 hPa | 0 mm | - | 475 W/m² | - |
| 1777325053 | 37.78° C | 26% | 1007.1 hPa | 0 mm | - | 590 W/m² | - |
| 1777324753 | 37.78° C | 26% | 1007.3 hPa | 0 mm | - | 574 W/m² | - |
| 1777324453 | 38.33° C | 25% | 1007.3 hPa | 0 mm | - | 613 W/m² | - |
| 1777324153 | 38.89° C | 25% | 1007.2 hPa | 0 mm | - | 658 W/m² | - |
| 1777323852 | 38.89° C | 22% | 1007.5 hPa | 0 mm | - | 679 W/m² | - |
| 1777323552 | 37.78° C | 24% | 1007.5 hPa | 0 mm | - | 673 W/m² | - |
* Rain latest hour (hover to see other rain measurements)
** Current wind speed in m/s (hover to see current wind gust speed)